星链-35317(STARLINK-35317)

导读

STARLINK-35317是美国SpaceX公司星链(Starlink)低轨互联网卫星星座中的一颗卫星,于2025年10月26日由美国发射升空。星链星座计划最终将在近地轨道部署超4万颗卫星,旨在为全球提供高速、低延迟的宽带互联网服务。STARLINK-35317延续了星链卫星紧凑轻量化的设计,依托SpaceX可重复使用火箭技术完成部署,进一步扩充了星链星座的全球网络覆盖能力,支撑星链系统为各类场景提供稳定互联服务。

基本信息
目录编号:
66184
目录名称:
STARLINK-35317
国际标识:
2025-243H
轨道中心:
EARTH
卫星名称:
星链-35317
卫星全名:
星链-35317(STARLINK-35317)
卫星状态:
在轨 (已飞行314 天)
发射日期:
2025-10-26 UTC
国别 :
美国 (US)
星等 :
--
轨道信息
数据来源 国际轨道数据 AOE轨道数据
星历时间 2026-09-05T06:42:01+0800
18小时前
查看轨道信息
2026-09-01T01:00:00+0800
5天前
查看轨道信息
半长轴 6840.836km 6840.942km
偏心率 0.0001199 0.0001314
轨道倾角 53.158° 53.157°
近地点辐角 83.133° 70.166°
升交点赤经 130.152° 149.961°
平近点角 276.981° 269.610°
近地点 461.878km 461.906km
远地点 463.52km 463.704km
周期 93.848分钟 93.850分钟
每日圈数 15.344017 15.343659
详细信息
固有亮度:
5
最大亮度:
2.5
卫星平台:
Starlink V1.0
覆盖范围:
全球
运营商:
太空探索技术公司
运营商所在国:
美国
制造商(研发单位):
太空探索技术公司
制造商所在国:
美国
使用方式:
暂无
卫星简介
Starlink 计划是 SpaceX 推出的全球卫星互联网项目,通过发射低轨道卫星,为全球尤其是偏远地区提供高速、低延迟的互联网服务。自 2019 年起,Starlink 已部署数千颗卫星,旨在缩小全球数字鸿沟,推动互联网普及。该项目还为军事、航空等行业提供通信支持,带来广泛经济效益。
2D轨道图
3D轨道图
轨道高度分析图
轨道倾角分析图
轨道综合分析图
查看轨道综合分析图